When you browse on this site, cookies collect data to enhance your experience and personalize the content and advertising you see.
Visit our Privacy Policy to learn more. By continuing to use the site, you agree to this use of cookies and data.
  • în România
  • Lista ţărilor
  • Pe 7 zile
  • Temperatura apei
  • Hartă satelitară
  • Meteo pe hartă
  • Widget-uri
  • user-avatar
    Intrare

    Meteo pe oră la Rogoźno

    Astăzi, 18 Martie, Luni

    Timp Temperatura Precipitaţii Vânt Presiune Umiditate
    00:00 +5°C° 0 mm 5 m/s 747 mmHg 77%
    01:00 +5°C° 0 mm 5 m/s 748 mmHg 79%
    02:00 +3°C° 0 mm 5 m/s 748 mmHg 78%
    03:00 +3°C° 0 mm 5 m/s 748 mmHg 78%
    04:00 +3°C° 0 mm 5 m/s 748 mmHg 77%
    05:00 +3°C° 0 mm 6 m/s 749 mmHg 77%
    06:00 +2°C° 0 mm 6 m/s 749 mmHg 76%
    07:00 +2°C° 0 mm 5 m/s 749 mmHg 76%
    08:00 +3°C° 0 mm 6 m/s 749 mmHg 71%
    09:00 +4°C° 0 mm 7 m/s 750 mmHg 66%
    10:00 +4°C° 0 mm 8 m/s 750 mmHg 62%
    11:00 +4°C° 0 mm 8 m/s 750 mmHg 62%
    12:00 +5°C° 0 mm 8 m/s 751 mmHg 62%
    13:00 +5°C° 0 mm 8 m/s 751 mmHg 62%
    14:00 +5°C° 0 mm 8 m/s 751 mmHg 60%
    15:00 +5°C° 0 mm 8 m/s 751 mmHg 59%
    16:00 +5°C° 0 mm 7 m/s 751 mmHg 57%
    17:00 +5°C° 0.1 mm 7 m/s 752 mmHg 60%
    18:00 +4°C° 0.1 mm 6 m/s 752 mmHg 64%
    19:00 +3°C° 0.1 mm 6 m/s 752 mmHg 68%
    20:00 +3°C° 0 mm 6 m/s 753 mmHg 70%
    21:00 +3°C° 0 mm 6 m/s 753 mmHg 72%
    22:00 +2°C° 0 mm 6 m/s 754 mmHg 74%
    23:00 +2°C° 0 mm 6 m/s 754 mmHg 76%

    Mâine, 19 Martie, Marţi

    Timp Temperatura Precipitaţii Vânt Presiune Umiditate
    00:00 +1°C° 0 mm 6 m/s 755 mmHg 77%
    01:00 +1°C° 0 mm 6 m/s 755 mmHg 78%
    02:00 0°C° 0 mm 5 m/s 756 mmHg 81%
    03:00 0°C° 0 mm 5 m/s 756 mmHg 84%
    04:00 0°C° 0 mm 5 m/s 756 mmHg 87%
    05:00 -1°C° 0 mm 5 m/s 757 mmHg 88%
    06:00 -1°C° 0 mm 5 m/s 758 mmHg 89%
    07:00 -1°C° 0 mm 4 m/s 758 mmHg 90%
    08:00 +1°C° 0 mm 5 m/s 759 mmHg 82%
    09:00 +2°C° 0 mm 5 m/s 759 mmHg 74%
    10:00 +5°C° 0 mm 5 m/s 760 mmHg 67%
    11:00 +6°C° 0 mm 5 m/s 760 mmHg 60%
    12:00 +7°C° 0 mm 5 m/s 761 mmHg 54%
    13:00 +7°C° 0 mm 5 m/s 761 mmHg 48%
    14:00 +7°C° 0.1 mm 5 m/s 761 mmHg 49%
    15:00 +7°C° 0.1 mm 5 m/s 761 mmHg 50%
    16:00 +7°C° 0.1 mm 5 m/s 762 mmHg 52%
    17:00 +6°C° 0.1 mm 4 m/s 762 mmHg 58%
    18:00 +5°C° 0.1 mm 3 m/s 763 mmHg 64%
    19:00 +5°C° 0.1 mm 2 m/s 763 mmHg 70%
    20:00 +4°C° 0 mm 2 m/s 764 mmHg 71%
    21:00 +3°C° 0 mm 2 m/s 765 mmHg 72%
    22:00 +2°C° 0 mm 2 m/s 765 mmHg 73%
    23:00 +2°C° 0 mm 2 m/s 766 mmHg 72%

    Poimâine, 20 Martie, Miercuri

    Timp Temperatura Precipitaţii Vânt Presiune Umiditate
    00:00 +1°C° 0 mm 2 m/s 766 mmHg 71%
    01:00 -1°C° 0 mm 2 m/s 766 mmHg 69%
    02:00 -1°C° 0 mm 2 m/s 767 mmHg 69%
    03:00 -1°C° 0 mm 2 m/s 767 mmHg 68%
    04:00 -1°C° 0 mm 2 m/s 767 mmHg 68%
    05:00 -1°C° 0 mm 2 m/s 767 mmHg 68%
    06:00 +1°C° 0 mm 2 m/s 767 mmHg 68%
    07:00 +1°C° 0 mm 2 m/s 768 mmHg 68%
    08:00 +2°C° 0 mm 3 m/s 768 mmHg 65%
    09:00 +4°C° 0 mm 3 m/s 768 mmHg 63%
    10:00 +6°C° 0 mm 4 m/s 768 mmHg 60%
    11:00 +7°C° 0 mm 4 m/s 768 mmHg 56%
    12:00 +8°C° 0 mm 4 m/s 768 mmHg 51%
    13:00 +9°C° 0 mm 5 m/s 768 mmHg 47%
    14:00 +9°C° 0 mm 5 m/s 768 mmHg 49%
    15:00 +9°C° 0 mm 5 m/s 767 mmHg 50%
    16:00 +10°C° 0 mm 5 m/s 767 mmHg 52%
    17:00 +8°C° 0 mm 4 m/s 767 mmHg 58%
    18:00 +7°C° 0 mm 4 m/s 767 mmHg 63%
    19:00 +7°C° 0 mm 3 m/s 768 mmHg 69%
    20:00 +6°C° 0 mm 4 m/s 768 mmHg 70%
    21:00 +6°C° 0 mm 4 m/s 768 mmHg 70%
    22:00 +5°C° 0 mm 4 m/s 768 mmHg 71%
    23:00 +6°C° 0 mm 4 m/s 768 mmHg 72%

    21 Martie, Joi

    Timp Temperatura Precipitaţii Vânt Presiune Umiditate
    00:00 +6°C° 0 mm 4 m/s 768 mmHg 73%
    01:00 +6°C° 0 mm 4 m/s 768 mmHg 74%
    02:00 +6°C° 0 mm 4 m/s 767 mmHg 77%
    03:00 +6°C° 0 mm 4 m/s 767 mmHg 80%
    04:00 +6°C° 0 mm 4 m/s 767 mmHg 83%
    05:00 +7°C° 0 mm 3 m/s 768 mmHg 87%
    06:00 +5°C° 0 mm 3 m/s 768 mmHg 90%
    07:00 +5°C° 0 mm 3 m/s 768 mmHg 94%
    08:00 +7°C° 0 mm 3 m/s 768 mmHg 90%
    09:00 +8°C° 0 mm 3 m/s 768 mmHg 87%
    10:00 +9°C° 0 mm 3 m/s 768 mmHg 84%
    11:00 +10°C° 0 mm 3 m/s 768 mmHg 81%
    12:00 +10°C° 0 mm 3 m/s 768 mmHg 79%
    13:00 +10°C° 0 mm 3 m/s 768 mmHg 77%
    14:00 +11°C° 0 mm 3 m/s 768 mmHg 75%
    15:00 +11°C° 0 mm 3 m/s 767 mmHg 74%
    16:00 +11°C° 0 mm 3 m/s 767 mmHg 73%
    17:00 +10°C° 0 mm 3 m/s 767 mmHg 78%
    18:00 +9°C° 0 mm 2 m/s 767 mmHg 83%
    19:00 +8°C° 0 mm 2 m/s 767 mmHg 88%
    20:00 +8°C° 0 mm 2 m/s 767 mmHg 88%
    21:00 +8°C° 0 mm 2 m/s 767 mmHg 89%
    22:00 +8°C° 0 mm 2 m/s 767 mmHg 90%
    23:00 +8°C° 0 mm 2 m/s 766 mmHg 91%

    22 Martie, Vineri

    Timp Temperatura Precipitaţii Vânt Presiune Umiditate
    00:00 +8°C° 0 mm 3 m/s 766 mmHg 91%
    01:00 +8°C° 0 mm 3 m/s 766 mmHg 91%
    02:00 +8°C° 0 mm 3 m/s 766 mmHg 91%
    03:00 +8°C° 0 mm 3 m/s 766 mmHg 91%
    04:00 +8°C° 0 mm 3 m/s 765 mmHg 91%
    05:00 +8°C° 0 mm 3 m/s 765 mmHg 91%
    06:00 +7°C° 0 mm 4 m/s 765 mmHg 90%
    07:00 +7°C° 0 mm 4 m/s 765 mmHg 90%
    08:00 +9°C° 0 mm 5 m/s 765 mmHg 83%
    09:00 +12°C° 0 mm 5 m/s 765 mmHg 76%
    10:00 +13°C° 0 mm 6 m/s 764 mmHg 69%
    11:00 +14°C° 0 mm 6 m/s 764 mmHg 64%
    12:00 +15°C° 0 mm 7 m/s 764 mmHg 59%
    13:00 +16°C° 0 mm 7 m/s 763 mmHg 53%
    14:00 +15°C° 0 mm 7 m/s 764 mmHg 60%
    15:00 +14°C° 0 mm 7 m/s 764 mmHg 67%
    16:00 +12°C° 0 mm 7 m/s 764 mmHg 73%
    17:00 +10°C° 0 mm 6 m/s 765 mmHg 67%
    18:00 +9°C° 0 mm 5 m/s 765 mmHg 61%
    19:00 +7°C° 0 mm 5 m/s 766 mmHg 55%
    20:00 +6°C° 0 mm 4 m/s 767 mmHg 56%
    21:00 +5°C° 0 mm 4 m/s 767 mmHg 58%
    22:00 +5°C° 0 mm 3 m/s 768 mmHg 59%
    23:00 +4°C° 0 mm 3 m/s 768 mmHg 62%

    23 Martie, Sâmbătă

    Timp Temperatura Precipitaţii Vânt Presiune Umiditate
    00:00 +3°C° 0 mm 3 m/s 768 mmHg 65%
    01:00 +3°C° 0 mm 3 m/s 768 mmHg 67%
    02:00 +3°C° 0 mm 2 m/s 768 mmHg 69%
    03:00 +3°C° 0 mm 2 m/s 768 mmHg 71%
    04:00 +2°C° 0 mm 2 m/s 768 mmHg 72%
    05:00 +4°C° 0 mm 1 m/s 768 mmHg 72%
    06:00 +4°C° 0 mm 1 m/s 768 mmHg 71%
    07:00 +3°C° 0 mm 0 m/s 768 mmHg 70%
    08:00 +6°C° 0 mm 1 m/s 768 mmHg 63%
    09:00 +6°C° 0 mm 2 m/s 768 mmHg 55%
    10:00 +8°C° 0 mm 3 m/s 768 mmHg 48%
    11:00 +9°C° 0 mm 3 m/s 767 mmHg 45%
    12:00 +10°C° 0 mm 3 m/s 766 mmHg 41%
    13:00 +11°C° 0 mm 3 m/s 766 mmHg 38%
    14:00 +11°C° 0 mm 4 m/s 765 mmHg 38%
    15:00 +12°C° 0 mm 4 m/s 764 mmHg 38%
    16:00 +12°C° 0 mm 4 m/s 763 mmHg 37%
    17:00 +11°C° 0 mm 4 m/s 763 mmHg 41%
    18:00 +10°C° 0 mm 4 m/s 762 mmHg 45%
    19:00 +8°C° 0 mm 3 m/s 762 mmHg 49%
    20:00 +8°C° 0 mm 3 m/s 762 mmHg 49%
    21:00 +8°C° 0 mm 3 m/s 762 mmHg 50%
    22:00 +7°C° 0 mm 4 m/s 761 mmHg 51%
    23:00 +8°C° 0 mm 3 m/s 761 mmHg 61%
    Arată mai mult